Location: Riverside Cemetery
(38.3047°N, 99.7773°W)
Time: 01:20:56
(UTC+00:00)

Landsat 5 - Pass Details

Date: 19 September 2020
Orbit: 528 x 655 km, 98.2° (Epoch: 23 October)

Event Time Altitude Azimuth Distance (km) Brightness Sun altitude
Rises 10:58:13 0° 183° (S) 2,953 6.8 -17.5°
Reaches altitude 10° 11:00:32 10° 191° (S) 2,053 6.0 -17.1°
Maximum altitude 11:04:46 40° 261° (W) 959 4.0 -16.3°
Drops below altitude 10° 11:09:02 10° 332° (NNW) 2,064 6.1 -15.5°
Sets 11:11:22 0° 339° (NNW) 2,971 7.0 -15.1°
